Time,TemperatureF,DewpointF,PressureIn,WindDirection,WindDirectionDegrees,WindSpeedMPH,WindSpeedGustMPH,Humidity,HourlyPrecipIn,Conditions,Clouds,dailyrainin,SoftwareType,DateUTC
2013-08-17 00:44:00,67.0,-99.9,30.19,North,-999,-999.0,-999.0,-999,0.00,,,-99.99,,2013-08-17 04:44:00,
2013-08-17 00:52:00,65.0,-99.9,30.19,North,-999,-999.0,-999.0,-999,0.00,,,-99.99,,2013-08-17 04:52:00,
2013-08-17 01:42:00,65.0,-99.9,30.19,North,-999,-999.0,-999.0,-999,0.00,,,-99.99,,2013-08-17 05:42:00,
2013-08-17 01:52:00,63.0,-99.9,30.19,North,-999,-999.0,-999.0,-999,0.00,,,-99.99,,2013-08-17 05:52:00,
2013-08-17 02:42:00,63.0,-99.9,30.19,North,-999,-999.0,-999.0,-999,0.00,,,-99.99,,2013-08-17 06:42:00,
2013-08-17 02:52:00,62.0,-99.9,30.21,North,-999,-999.0,-999.0,-999,0.00,,,-99.99,,2013-08-17 06:52:00,
2013-08-17 03:42:00,62.0,-99.9,30.21,North,-999,-999.0,-999.0,-999,0.00,,,-99.99,,2013-08-17 07:42:00,
2013-08-17 03:52:00,62.0,-99.9,30.20,North,-999,-999.0,-999.0,-999,0.00,,,-99.99,,2013-08-17 07:52:00,
2013-08-17 04:42:00,62.0,-99.9,30.20,North,-999,-999.0,-999.0,-999,0.00,,,-99.99,,2013-08-17 08:42:00,
2013-08-17 04:52:00,61.0,-99.9,30.20,North,-999,-999.0,-999.0,-999,0.00,,,-99.99,,2013-08-17 08:52:00,
2013-08-17 05:43:00,61.0,-99.9,30.20,North,-999,-999.0,-999.0,-999,0.00,,,-99.99,,2013-08-17 09:43:00,
2013-08-17 05:52:00,61.0,-99.9,30.21,North,-999,-999.0,-999.0,-999,0.00,,,-99.99,,2013-08-17 09:52:00,
2013-08-17 06:42:00,61.0,-99.9,30.21,North,-999,-999.0,-999.0,-999,0.00,,,-99.99,,2013-08-17 10:42:00,
2013-08-17 06:52:00,61.0,-99.9,30.22,North,-999,-999.0,-999.0,-999,0.00,,,-99.99,,2013-08-17 10:52:00,
2013-08-17 07:42:00,61.0,-99.9,30.22,North,-999,-999.0,-999.0,-999,0.00,,,-99.99,,2013-08-17 11:42:00,
2013-08-17 07:52:00,66.0,-99.9,30.25,North,-999,-999.0,-999.0,-999,0.00,,,-99.99,,2013-08-17 11:52:00,
2013-08-17 08:42:00,66.0,-99.9,30.25,North,-999,-999.0,-999.0,-999,0.00,,,-99.99,,2013-08-17 12:42:00,
2013-08-17 08:52:00,69.0,-99.9,30.26,North,-999,-999.0,-999.0,-999,0.00,,,-99.99,,2013-08-17 12:52:00,
2013-08-17 09:42:00,69.0,-99.9,30.26,North,-999,-999.0,-999.0,-999,0.00,,,-99.99,,2013-08-17 13:42:00,
2013-08-17 09:52:00,72.0,-99.9,30.27,North,-999,-999.0,-999.0,-999,0.00,,,-99.99,,2013-08-17 13:52:00,
2013-08-17 10:42:00,72.0,-99.9,30.27,North,-999,-999.0,-999.0,-999,0.00,,,-99.99,,2013-08-17 14:42:00,
2013-08-17 10:52:00,72.0,-99.9,30.27,North,-999,-999.0,-999.0,-999,0.00,,,-99.99,,2013-08-17 14:52:00,
2013-08-17 11:44:00,72.0,-99.9,30.27,North,-999,-999.0,-999.0,-999,0.00,,,-99.99,,2013-08-17 15:44:00,
2013-08-17 11:52:00,74.0,-99.9,30.26,North,-999,-999.0,-999.0,-999,0.00,,,-99.99,,2013-08-17 15:52:00,
2013-08-17 12:42:00,74.0,-99.9,30.26,North,-999,-999.0,-999.0,-999,0.00,,,-99.99,,2013-08-17 16:42:00,
2013-08-17 12:52:00,74.0,-99.9,30.25,North,-999,-999.0,-999.0,-999,0.00,,,-99.99,,2013-08-17 16:52:00,
2013-08-17 13:42:00,74.0,-99.9,30.25,North,-999,-999.0,-999.0,-999,0.00,,,-99.99,,2013-08-17 17:42:00,
2013-08-17 13:52:00,74.0,-99.9,30.25,North,-999,-999.0,-999.0,-999,0.00,,,-99.99,,2013-08-17 17:52:00,
2013-08-17 14:42:00,74.0,-99.9,30.25,North,-999,-999.0,-999.0,-999,0.00,,,-99.99,,2013-08-17 18:42:00,
2013-08-17 14:52:00,74.0,-99.9,30.25,North,-999,-999.0,-999.0,-999,0.00,,,-99.99,,2013-08-17 18:52:00,
2013-08-17 15:42:00,74.0,-99.9,30.25,North,-999,-999.0,-999.0,-999,0.00,,,-99.99,,2013-08-17 19:42:00,
2013-08-17 15:52:00,74.0,-99.9,30.24,North,-999,-999.0,-999.0,-999,0.00,,,-99.99,,2013-08-17 19:52:00,
2013-08-17 16:42:00,74.0,-99.9,30.24,North,-999,-999.0,-999.0,-999,0.00,,,-99.99,,2013-08-17 20:42:00,
2013-08-17 16:52:00,74.0,-99.9,30.24,North,-999,-999.0,-999.0,-999,0.00,,,-99.99,,2013-08-17 20:52:00,
2013-08-17 17:42:00,74.0,-99.9,30.24,North,-999,-999.0,-999.0,-999,0.00,,,-99.99,,2013-08-17 21:42:00,
2013-08-17 17:52:00,74.0,-99.9,30.23,North,-999,-999.0,-999.0,-999,0.00,,,-99.99,,2013-08-17 21:52:00,
2013-08-17 18:42:00,74.0,-99.9,30.23,North,-999,-999.0,-999.0,-999,0.00,,,-99.99,,2013-08-17 22:42:00,
2013-08-17 18:52:00,73.0,-99.9,30.23,North,-999,-999.0,-999.0,-999,0.00,,,-99.99,,2013-08-17 22:52:00,
2013-08-17 19:42:00,73.0,-99.9,30.23,North,-999,-999.0,-999.0,-999,0.00,,,-99.99,,2013-08-17 23:42:00,
2013-08-17 19:52:00,72.0,-99.9,30.25,North,-999,-999.0,-999.0,-999,0.00,,,-99.99,,2013-08-17 23:52:00,
2013-08-17 20:42:00,72.0,-99.9,30.25,North,-999,-999.0,-999.0,-999,0.00,,,-99.99,,2013-08-18 00:42:00,
2013-08-17 20:52:00,71.0,-99.9,30.25,North,-999,-999.0,-999.0,-999,0.00,,,-99.99,,2013-08-18 00:52:00,
2013-08-17 21:42:00,71.0,-99.9,30.25,North,-999,-999.0,-999.0,-999,0.00,,,-99.99,,2013-08-18 01:42:00,
2013-08-17 21:52:00,70.0,-99.9,30.26,North,-999,-999.0,-999.0,-999,0.00,,,-99.99,,2013-08-18 01:52:00,
2013-08-17 22:42:00,70.0,-99.9,30.26,North,-999,-999.0,-999.0,-999,0.00,,,-99.99,,2013-08-18 02:42:00,
2013-08-17 22:52:00,68.0,-99.9,30.26,North,-999,-999.0,-999.0,-999,0.00,,,-99.99,,2013-08-18 02:52:00,
2013-08-17 23:43:00,68.0,-99.9,30.26,North,-999,-999.0,-999.0,-999,0.00,,,-99.99,,2013-08-18 03:43:00,
2013-08-17 23:52:00,67.0,-99.9,30.24,North,-999,-999.0,-999.0,-999,0.00,,,-99.99,,2013-08-18 03:52:00,